Weather History for KCOU - March, 2012

Change the Weather History Date:

Monday, March 5, 2012

  Actual Average Record
Temperature  
Mean Temperature 38 °F 41 °F  
Max Temperature 54 °F 51 °F 84 °F (1956)
Min Temperature 22 °F 30 °F -9 °F (1960)
Degree Days  
Heating Degree Days 27 24  
Month to date heating degree days 115 126  
Since 1 July heating degree days 3458 4072  
Cooling Degree Days 0 0  
Month to date cooling degree days 0 0  
Year to date cooling degree days 0 0  
Moisture  
Dew Point 21 °F    
Average Humidity 50    
Maximum Humidity 75    
Minimum Humidity 24    
Precipitation  
Precipitation 0.00 in 0.09 in 1.30 in (1894)
Month to date precipitation 0.14 0.43  
Year to date precipitation 3.55 4.60  
Snow  
Snow 0.00 in 0.10 in 4.60 in (1947)
Month to date snowfall T 0.4  
Since 1 July snowfall 6.6 16.5  
Snow Depth 0.00 in    
Sea Level Pressure  
Sea Level Pressure 30.26 in    
Wind  
Wind Speed 10 mph (SE)    
Max Wind Speed 22 mph    
Max Gust Speed 26 mph    
Visibility 10 miles    
Events      
T = Trace of Precipitation, MM = Missing Value Source: NWS Daily Summary

Daily Weather History Graph

Daily Weather History Graph

Search for Another Location

Airport or City:

Trip Planner

Search our weather history database for the weather conditions in past years. The results will help you decide how hot, cold, wet, or windy it might be!

Date:

Astronomy

Mar. 05, 2012 Rise Set
Actual Time 6:34 AM CST 6:06 PM CST
Civil Twilight 6:08 AM CST 6:33 PM CST
Nautical Twilight 5:37 AM CST 7:03 PM CST
Astronomical Twilight 5:06 AM CST 7:34 PM CST
Moon 3:26 PM CST (3/5) 4:32 AM CST (3/5)
Length of Visible Light 12h 25m
Length of Day
11h 31m
Waxing Gibbous, 91% of the Moon is Illuminated
Mar 5
Waxing Gibbous
Mar 8
Full
Mar 14
Last Quarter
Mar 22
New
Mar 30
First Quarter

Hourly Weather History & Observations

Time (CST) Temp. Windchill Dew Point Humidity Pressure Visibility Wind Dir Wind Speed Gust Speed Precip Events Conditions
12:54 AM 35.6 °F 28.0 °F 24.8 °F 65% 30.18 in 10.0 mi NNW 10.4 mph - N/A   Overcast
1:36 AM 33.8 °F 25.3 °F 21.2 °F 60% 30.21 in 10.0 mi NNW 11.5 mph - N/A   Mostly Cloudy
1:54 AM 30.9 °F 22.2 °F 21.0 °F 67% 30.23 in 10.0 mi NNW 10.4 mph - N/A   Scattered Clouds
2:54 AM 28.9 °F 20.4 °F 19.9 °F 69% 30.25 in 10.0 mi NNW 9.2 mph - N/A   Clear
3:54 AM 26.1 °F 20.5 °F 19.9 °F 78% 30.26 in 10.0 mi NNE 4.6 mph - N/A   Clear
4:54 AM 27.0 °F 21.6 °F 19.0 °F 72% 30.29 in 10.0 mi North 4.6 mph - N/A   Clear
5:54 AM 27.0 °F 23.0 °F 19.9 °F 75% 30.32 in 10.0 mi North 3.5 mph - N/A   Clear
6:54 AM 27.0 °F - 19.9 °F 75% 30.35 in 10.0 mi Calm Calm - N/A   Clear
7:54 AM 30.0 °F - 21.9 °F 72% 30.38 in 10.0 mi Calm Calm - N/A   Clear
8:54 AM 33.1 °F 27.7 °F 21.9 °F 64% 30.40 in 10.0 mi SSE 5.8 mph - N/A   Clear
9:54 AM 37.0 °F 31.6 °F 23.0 °F 57% 30.40 in 10.0 mi ESE 6.9 mph - N/A   Clear
10:54 AM 39.0 °F 36.8 °F 21.9 °F 50% 30.40 in 10.0 mi Variable 3.5 mph - N/A   Clear
11:54 AM 43.0 °F 39.5 °F 21.0 °F 42% 30.38 in 10.0 mi South 5.8 mph - N/A   Clear
12:54 PM 46.9 °F - 21.9 °F 37% 30.34 in 10.0 mi SE 8.1 mph 16.1 mph N/A   Clear
1:54 PM 51.1 °F - 21.0 °F 31% 30.30 in 10.0 mi SSE 12.7 mph 19.6 mph N/A   Clear
2:54 PM 52.0 °F - 19.9 °F 28% 30.27 in 10.0 mi SE 15.0 mph - N/A   Clear
3:54 PM 53.1 °F - 18.0 °F 25% 30.26 in 10.0 mi South 11.5 mph - N/A   Clear
4:54 PM 53.1 °F - 17.1 °F 24% 30.23 in 10.0 mi SSE 17.3 mph - N/A   Clear
5:54 PM 50.0 °F - 18.0 °F 28% 30.20 in 10.0 mi SE 10.4 mph - N/A   Clear
6:54 PM 48.0 °F - 19.0 °F 32% 30.18 in 10.0 mi SE 10.4 mph - N/A   Clear
7:54 PM 48.0 °F - 19.9 °F 33% 30.16 in 10.0 mi SSE 13.8 mph - N/A   Clear
8:54 PM 50.0 °F - 21.0 °F 32% 30.15 in 10.0 mi South 19.6 mph 25.3 mph N/A   Clear
9:54 PM 48.9 °F - 21.9 °F 35% 30.14 in 10.0 mi South 18.4 mph 24.2 mph N/A   Clear
10:54 PM 48.0 °F - 25.0 °F 41% 30.14 in 10.0 mi South 17.3 mph 25.3 mph N/A   Clear
11:54 PM 46.9 °F - 25.0 °F 42% 30.12 in 10.0 mi South 16.1 mph - N/A   Clear